Flag for Canada Weather past 2 weeks in Yarmouth County, Nova Scotia, Canada

Now
63 °F

Broken clouds.


Feels Like: 63 °F
Forecast: 59 / 71 °F
Wind: 3 mph from Northeast

Location: Yarmouth

Current Time: Aug 22, 2014 at 9:10:39 AM

Latest Report: Aug 22, 2014 at 8:00 AM


Visibility: 15 mi

Pressure: 30.13 "Hg

Humidity: 88%

Dew point: 59 °F

Location of Yarmouth CountyLocation

Historic Weather in Yarmouth County — Graph

°F

Yarmouth County temperature yesterday

Maximum temperature yesterday: 75 °F (at 12:00 PM)
Minimum temperature yesterday: 54 °F (at 7:00 AM)
Average temperature yesterday: 64 °F

Past Weeks' High & Low Weather Summary

 TemperatureHumidityPressure
High75 °F (Aug 21, 12:00 PM)100% (Aug 7, 8:00 AM)30.20 "Hg (Aug 7, 8:00 AM)
Low52 °F (Aug 15, 6:00 AM)61% (Aug 10, 1:00 PM)29.68 "Hg (Aug 18, 5:00 AM)
Average62 °F89%29.96 "Hg
* Reported Aug 7 8:00 AM — Aug 22 8:00 AM, Yarmouth County, Weather by CustomWeather, © 2014

Note: Actual official high and low records may vary slightly from our data, if they occured in-between our weather recording intervals... More about our weather records

Advertising

Yarmouth County weather history for previous 24 hours

 ConditionsComfort  
Time TempWeatherWind HumidityBarometerVisibility
8:00 AM
Aug 22
63 °FBroken clouds.3 mph88%30.13 "Hg15 mi
7:00 AM61 °FPassing clouds.7 mph94%30.11 "Hg15 mi
6:00 AM61 °FOvercast.5 mph94%30.10 "Hg15 mi
5:00 AM61 °FOvercast.5 mph88%30.10 "Hg15 mi
4:00 AM63 °FOvercast.5 mph83%30.10 "Hg15 mi
3:00 AM61 °FOvercast.5 mph88%30.10 "Hg15 mi
2:00 AM61 °FOvercast.5 mph88%30.11 "Hg15 mi
1:00 AM59 °FPassing clouds.6 mph94%30.11 "Hg15 mi
12:00 AM59 °FPassing clouds.3 mph88%30.11 "Hg15 mi
11:00 PM
Aug 21
59 °FClear.3 mph88%30.11 "Hg15 mi
10:00 PM59 °FPassing clouds.2 mph94%30.11 "Hg15 mi
9:00 PM61 °FMostly cloudy.5 mph88%30.11 "Hg15 mi
8:00 PM63 °FCloudy.6 mph83%30.11 "Hg15 mi
7:00 PM64 °FMostly cloudy.8 mph83%30.11 "Hg15 mi
6:00 PM66 °FMostly cloudy.8 mph78%30.11 "Hg15 mi
5:00 PM68 °FMostly cloudy.8 mph73%30.11 "Hg15 mi
4:00 PM70 °FMore clouds than sun.8 mph73%30.10 "Hg15 mi
3:00 PM70 °FOvercast.9 mph73%30.10 "Hg15 mi
2:00 PM72 °FMostly cloudy.12 mph78%30.09 "Hg15 mi
1:00 PM75 °FMostly cloudy.2 mph65%30.09 "Hg15 mi
12:00 PM75 °FOvercast.9 mph69%30.10 "Hg15 mi
11:00 AM72 °FOvercast.9 mph73%30.11 "Hg15 mi
10:00 AM70 °FOvercast.7 mph78%30.11 "Hg15 mi
9:00 AM64 °FOvercast.6 mph88%30.10 "Hg15 mi
Weather by CustomWeather, © 2014

See weather overviewHow to use our weather pages